Weather History for Guatemala, Guatemala

Change the Weather History Date:

Tuesday, March 13, 2012

  Actual Average Record
Temperature  
Mean Temperature 66 °F -  
Max Temperature 77 °F 77 °F 86 °F (2001)
Min Temperature 55 °F 57 °F 53 °F (1998)
Cooling Degree Days 1    
Growing Degree Days 16 (Base 50)    
Moisture  
Dew Point 54 °F    
Average Humidity 70    
Maximum Humidity 88    
Minimum Humidity 42    
Precipitation  
Precipitation 0.00 in - - ()
Sea Level Pressure  
Sea Level Pressure 30.23 in    
Wind  
Wind Speed 14 mph ()    
Max Wind Speed 23 mph    
Max Gust Speed -    
Visibility 6.2 miles    
Events      
Averages and records for this station are not official NWS values.
T = Trace of Precipitation, MM = Missing Value Source: Averaged Metar Reports

Daily Weather History Graph

Daily Weather History Graph

Search for Another Location

Airport:

Trip Planner

Search our weather history database for the weather conditions in past years. The results will help you decide how hot, cold, wet, or windy it might be!

Date:

Astronomy

Mar. 13, 2012 Rise Set
Actual Time 6:10 AM CST 6:12 PM CST
Civil Twilight 5:49 AM CST 6:33 PM CST
Nautical Twilight 5:24 AM CST 6:58 PM CST
Astronomical Twilight 4:59 AM CST 7:23 PM CST
Moon 11:45 PM CST (3/13) 10:25 AM CST (3/13)
Length of Visible Light 12h 44m
Length of Day
12h 01m
Waning Gibbous, 65% of the Moon is Illuminated
Mar 13
Waning Gibbous
Mar 14
Last Quarter
Mar 22
New
Mar 30
First Quarter
Apr 6
Full

Hourly Weather History & Observations

Time (CST) Temp. Dew Point Humidity Pressure Visibility Wind Dir Wind Speed Gust Speed Precip Events Conditions
12:00 AM 59.0 °F 55.4 °F 88% 30.27 in 6.2 mi North 16.1 mph - N/A   Scattered Clouds
1:00 AM 59.0 °F 53.6 °F 82% 30.27 in 6.2 mi North 11.5 mph - N/A   Partly Cloudy
2:00 AM 57.2 °F 53.6 °F 88% 10.24 in 6.2 mi North 13.8 mph - N/A   Scattered Clouds
3:00 AM 57.2 °F 53.6 °F 88% 30.24 in 6.2 mi North 13.8 mph - N/A   Mostly Cloudy
4:00 AM 57.2 °F 53.6 °F 88% 30.24 in 6.2 mi North 13.8 mph - N/A   Mostly Cloudy
5:00 AM 57.2 °F 53.6 °F 88% 30.24 in 6.2 mi North 11.5 mph - N/A   Scattered Clouds
6:00 AM 57.2 °F 53.6 °F 88% 30.24 in 6.2 mi North 11.5 mph - N/A   Scattered Clouds
7:00 AM 57.2 °F 53.6 °F 88% 30.24 in 6.2 mi North 11.5 mph - N/A   Mostly Cloudy
8:00 AM 60.8 °F 57.2 °F 88% 30.24 in 6.2 mi NNE 13.8 mph - N/A   Mostly Cloudy
9:00 AM 62.6 °F 53.6 °F 72% 30.27 in 6.2 mi North 16.1 mph - N/A   Mostly Cloudy
10:00 AM 68.0 °F 53.6 °F 60% 30.27 in 6.2 mi North 20.7 mph - N/A   Scattered Clouds
11:00 AM 69.8 °F 55.4 °F 60% 30.27 in 6.2 mi North 20.7 mph - N/A   Mostly Cloudy
12:00 PM 73 °F 54 °F 42% 29.95 in 25 mi North 23.0 mph - -   Partly Cloudy
12:00 PM 73.4 °F 55.4 °F 53% 30.27 in 6.2 mi North 23.0 mph - N/A   Scattered Clouds
1:00 PM 73.4 °F 55.4 °F 53% 30.24 in 6.2 mi North 18.4 mph - N/A   Scattered Clouds
2:00 PM 75.2 °F 53.6 °F 47% 30.24 in 6.2 mi North 18.4 mph - N/A   Scattered Clouds
3:00 PM 75.2 °F 51.8 °F 44% 30.24 in 6.2 mi NNE 16.1 mph - N/A   Scattered Clouds
4:00 PM 77.0 °F 55.4 °F 47% 30.21 in 6.2 mi NNE 18.4 mph - N/A   Scattered Clouds
5:00 PM 73.4 °F 53.6 °F 50% 30.21 in 6.2 mi NNE 18.4 mph - N/A   Partly Cloudy
6:00 PM 69.8 °F 55.4 °F 60% 30.21 in 6.2 mi North 18.4 mph - N/A   Partly Cloudy
7:00 PM 66.2 °F 53.6 °F 64% 30.21 in 6.2 mi North 20.7 mph - N/A   Partly Cloudy
8:00 PM 64.4 °F 55.4 °F 73% 30.24 in 6.2 mi North 18.4 mph - N/A   Partly Cloudy
9:00 PM 62.6 °F 55.4 °F 77% 30.27 in 6.2 mi North 18.4 mph - N/A   Partly Cloudy
10:00 PM 62.6 °F 55.4 °F 77% 30.27 in 6.2 mi North 16.1 mph - N/A   Partly Cloudy
11:00 PM 60.8 °F 55.4 °F 82% 30.27 in 6.2 mi North 18.4 mph - N/A   Partly Cloudy